FW8640 Weather Reports


Display with metric or nautical units.
time (UTC)temp
F
wind
direction
speed
MPH
gust
MPH
rain 1hr
in
rain 24hr
in
rain mn
in
humidity
%
barometer
mb
20240227112518 67 0 1.0 5.0 0.00 0.00 0.00 56 1019.2
20240227111518 65 0 2.0 4.0 0.00 0.00 0.00 59 1019.2
20240227110544 66 0 1.0 5.0 0.00 0.00 0.00 59 1019.2
20240227105518 64 0 2.0 4.0 0.00 0.00 0.00 61 1019.2
20240227104517 64 0 2.0 5.0 0.00 0.00 0.00 59 1019.2
20240227103519 64 0 2.0 6.0 0.00 0.00 0.00 61 1019.3
20240227102519 64 0 2.0 6.0 0.00 0.00 0.00 58 1019.4
20240227101518 64 0 2.0 3.0 0.00 0.00 0.00 60 1019.4
20240227100517 64 0 2.0 4.0 0.00 0.00 0.00 60 1019.3
20240227095559 65 0 2.0 5.0 0.00 0.00 0.00 59 1019.1
20240227094517 64 0 1.0 2.0 0.00 0.00 0.00 63 1019.2
20240227093519 63 0 1.0 2.0 0.00 0.00 0.00 66 1019.5
20240227092517 62 0 2.0 3.0 0.00 0.00 0.00 65 1019.4
20240227091517 61 0 1.0 2.0 0.00 0.00 0.00 71 1019.5
20240227090519 61 0.0 2.0 0.00 0.00 0.00 71 1019.4
20240227085519 61 0 1.0 3.0 0.00 0.00 0.00 73 1019.2
20240227084519 59 0 2.0 4.0 0.00 0.00 0.00 76 1018.9
20240227083539 59 0 3.0 5.0 0.00 0.00 0.00 74 1018.8
20240227082540 61 0 1.0 3.0 0.00 0.00 0.00 74 1018.5
20240227081518 60 0 1.0 2.0 0.00 0.00 0.00 75 1018.2
20240227080517 59 0 2.0 3.0 0.00 0.00 0.00 75 1018.2
20240227075519 59 0.0 0.0 0.00 0.00 0.00 77 1018.4
20240227074517 59 0.0 0.0 0.00 0.00 0.00 78 1018.6
20240227073517 57 0.0 0.0 0.00 0.00 0.00 79 1018.6
20240227072517 57 0.0 0.0 0.00 0.00 0.00 78 1018.6
20240227071517 57 0.0 0.0 0.00 0.00 0.00 79 1018.6
20240227070517 57 0.0 0.0 0.00 0.00 0.00 79 1018.5
20240227065539 56 0.0 0.0 0.00 0.00 0.00 80 1018.5
20240227064518 56 0.0 0.0 0.00 0.00 0.00 80 1018.4
20240227063518 55 0.0 0.0 0.00 0.00 0.00 81 1018.3
20240227062519 54 0.0 0.0 0.00 0.00 0.00 81 1018.2
20240227061518 54 0.0 0.0 0.00 0.00 0.00 82 1018.1
20240227060517 53 0.0 0.0 0.00 0.00 0.00 83 1018.0
20240227055517 52 0.0 0.0 0.00 0.00 0.00 83 1017.9
20240227054518 52 0.0 0.0 0.00 0.00 0.00 83 1017.7
20240227053517 52 0.0 0.0 0.00 0.00 0.00 83 1017.5
20240227052539 52 0.0 0.0 0.00 0.00 0.00 84 1017.3
20240227051517 51 0.0 0.0 0.00 0.00 0.00 83 1017.2
20240227050517 51 0.0 0.0 0.00 0.00 0.00 83 1017.0
20240227045517 51 0.0 0.0 0.00 0.00 0.00 84 1016.9
20240227044517 52 0.0 0.0 0.00 0.00 0.00 86 1016.8
20240227043518 51 0.0 0.0 0.00 0.00 0.00 85 1016.7
20240227042517 52 0.0 0.0 0.00 0.00 0.00 86 1016.8
20240227041517 52 0.0 0.0 0.00 0.00 0.00 86 1016.6
20240227040518 52 0.0 0.0 0.00 0.00 0.00 86 1016.6
20240227035519 52 0.0 0.0 0.00 0.00 0.00 87 1016.5
20240227034518 53 0.0 0.0 0.00 0.00 0.00 87 1016.6
20240227033518 53 0.0 0.0 0.00 0.00 0.00 87 1016.6
20240227032558 54 0.0 1.0 0.00 0.00 0.00 87 1016.6
20240227031517 54 0.0 1.0 0.00 0.00 0.00 87 1016.5
20240227030518 54 0.0 1.0 0.00 0.00 0.00 86 1016.5
20240227025517 55 0.0 1.0 0.00 0.00 0.00 85 1016.5
20240227024516 55 0 1.0 4.0 0.00 0.00 0.00 85 1016.5
20240227023516 55 0.0 1.0 0.00 0.00 0.00 84 1016.4
20240227022516 55 0.0 0.0 0.00 0.00 0.00 84 1016.3
20240227021518 56 0.0 0.0 0.00 0.00 0.00 84 1016.2
20240227020516 56 0.0 1.0 0.00 0.00 0.00 83 1016.2
20240227015516 56 0.0 0.0 0.00 0.00 0.00 82 1016.3
20240227014559 56 0.0 0.0 0.00 0.00 0.00 81 1016.2
20240227013516 56 0.0 0.0 0.00 0.00 0.00 80 1016.2
20240227012516 56 0.0 1.0 0.00 0.00 0.00 79 1016.2
20240227011518 56 0.0 0.0 0.00 0.00 0.00 79 1016.1
20240227010537 56 0.0 1.0 0.00 0.00 0.00 80 1016.2
20240227005518 56 0.0 0.0 0.00 0.00 0.00 79 1016.4
20240227004516 56 0.0 0.0 0.00 0.00 0.00 77 1016.3
20240227003516 57 0.0 1.0 0.00 0.00 0.00 77 1016.3
20240227002518 57 0.0 2.0 0.00 0.00 0.00 77 1016.2
20240227001601 57 0.0 1.0 0.00 0.00 0.00 78 1016.3
20240227000518 57 0.0 1.0 0.00 0.00 0.00 78 1016.2
20240226235520 57 0.0 1.0 0.00 0.00 0.00 78 1016.1
20240226234518 57 0.0 1.0 0.00 0.00 0.00 78 1016.2
20240226233518 57 0.0 1.0 0.00 0.00 0.00 77 1016.3
20240226232518 57 0.0 1.0 0.00 0.00 0.00 77 1016.2
20240226231540 58 0.0 0.0 0.00 0.00 0.00 78 1016.2
20240226230519 58 0.0 2.0 0.00 0.00 0.00 78 1016.3
20240226225540 58 0.0 1.0 0.00 0.00 0.00 77 1016.2
20240226224519 58 0.0 0.0 0.00 0.00 0.00 75 1016.0
20240226223518 58 0.0 0.0 0.00 0.00 0.00 74 1016.1
20240226222518 58 0.0 1.0 0.00 0.00 0.00 74 1016.0
20240226221519 58 0.0 0.0 0.00 0.00 0.00 74 1015.9
20240226220518 59 0.0 0.0 0.00 0.00 0.00 74 1016.0
20240226215518 58 0.0 0.0 0.00 0.00 0.00 73 1015.8
20240226214538 59 0.0 0.0 0.00 0.00 0.00 73 1015.7
20240226213518 59 0 1.0 2.0 0.00 0.00 0.00 72 1015.7
20240226212517 59 0.0 0.0 0.00 0.00 0.00 72 1015.4
20240226211517 59 0.0 0.0 0.00 0.00 0.00 71 1015.4
20240226210517 59 0.0 0.0 0.00 0.00 0.00 71 1015.3
20240226205517 59 0.0 0.0 0.00 0.00 0.00 71 1015.2
20240226204518 59 0.0 0.0 0.00 0.00 0.00 70 1015.1
20240226203517 59 0.0 0.0 0.00 0.00 0.00 70 1014.9
20240226202517 59 0.0 0.0 0.00 0.00 0.00 71 1014.8
20240226201517 59 0.0 0.0 0.00 0.00 0.00 72 1014.7
20240226200517 60 0 2.0 6.0 0.00 0.00 0.00 71 1014.6
20240226195517 60 0 2.0 5.0 0.00 0.00 0.00 72 1014.5
20240226194517 60 0 2.0 4.0 0.00 0.00 0.00 72 1014.5
20240226193518 60 0 2.0 4.0 0.00 0.00 0.00 72 1014.4
20240226192516 60 0 1.0 3.0 0.00 0.00 0.00 72 1014.3
20240226191518 60 0 1.0 3.0 0.00 0.00 0.00 72 1014.1
20240226190516 60 0 2.0 5.0 0.00 0.00 0.00 72 1013.9
20240226185539 60 0 2.0 4.0 0.00 0.00 0.00 72 1013.9
20240226184518 60 0 1.0 3.0 0.00 0.00 0.00 72 1013.7
20240226183539 60 0 1.0 5.0 0.00 0.00 0.00 72 1013.7
20240226182537 60 0 1.0 3.0 0.00 0.00 0.00 72 1013.7
20240226181518 60 0 1.0 4.0 0.00 0.00 0.00 72 1013.7
20240226180537 60 0 1.0 4.0 0.00 0.00 0.00 72 1013.6
20240226175516 60 0.0 0.0 0.00 0.00 0.00 73 1013.5
20240226174537 60 0.0 2.0 0.00 0.00 0.00 73 1013.4
20240226173516 60 0.0 1.0 0.00 0.00 0.00 72 1013.2
20240226172516 60 0.0 0.0 0.00 0.00 0.00 72 1013.1
20240226171517 60 0.0 2.0 0.00 0.00 0.00 72 1013.1
20240226170516 60 0 1.0 3.0 0.00 0.00 0.00 72 1013.1
20240226165516 59 0 2.0 4.0 0.00 0.00 0.00 73 1012.9
20240226164537 60 0 1.0 4.0 0.00 0.00 0.00 73 1012.8
20240226163518 60 0 2.0 5.0 0.00 0.00 0.00 73 1012.8
20240226162516 60 0 2.0 4.0 0.00 0.00 0.00 73 1012.7
20240226161537 60 0.0 2.0 0.00 0.00 0.00 73 1012.6
20240226160516 60 0.0 1.0 0.00 0.00 0.00 73 1012.6
20240226155516 60 0 1.0 3.0 0.00 0.00 0.00 73 1012.4
20240226154517 60 0 1.0 2.0 0.00 0.00 0.00 74 1012.3
20240226153518 60 0 2.0 4.0 0.00 0.00 0.00 73 1012.2
20240226152516 60 0 2.0 6.0 0.00 0.00 0.00 73 1012.1
20240226151517 60 0 3.0 5.0 0.00 0.00 0.00 72 1011.9
20240226150538 61 0 3.0 6.0 0.00 0.00 0.00 71 1011.9
20240226145518 62 0 2.0 6.0 0.00 0.00 0.00 67 1011.8
20240226144539 63 0 1.0 4.0 0.00 0.00 0.00 66 1011.5
20240226143518 63 0 2.0 10.0 0.00 0.00 0.00 66 1011.5
20240226142519 63 0 2.0 6.0 0.00 0.00 0.00 65 1011.5
20240226141540 63 0 2.0 6.0 0.00 0.00 0.00 64 1011.4
20240226140518 64 0 3.0 8.0 0.00 0.00 0.00 64 1011.4
20240226135540 63 0 3.0 9.0 0.00 0.00 0.00 64 1011.2
20240226134519 63 0 3.0 11.0 0.00 0.00 0.00 65 1011.2
20240226133518 62 0 2.0 6.0 0.00 0.01 0.00 66 1011.1
20240226132518 62 0 3.0 12.0 0.00 0.01 0.00 67 1011.1
20240226131518 61 0 3.0 11.0 0.00 0.01 0.00 72 1011.0
20240226130518 64 0 3.0 10.0 0.00 0.01 0.00 63 1010.9
20240226125519 66 0 4.0 12.0 0.00 0.01 0.00 51 1010.5
20240226124518 66 0 3.0 8.0 0.00 0.01 0.00 52 1010.4
20240226123518 66 0 2.0 9.0 0.00 0.01 0.00 53 1010.5
20240226122518 66 0 6.0 15.0 0.00 0.01 0.00 53 1010.5
20240226121601 66 0 4.0 12.0 0.00 0.01 0.00 53 1010.4
20240226120519 66 0 4.0 11.0 0.00 0.01 0.00 53 1010.4
20240226115540 65 0 6.0 12.0 0.00 0.01 0.00 53 1010.5
20240226114518 65 0 5.0 15.0 0.00 0.01 0.00 52 1010.6
20240226113517 66 0 4.0 10.0 0.00 0.01 0.00 50 1010.5